Regional Weather Roundup
Issued by NWS Mobile, AL

Home | Current Version | Previous Version | Text Only | Print | Product List | Glossary On
Versions: 1 2 3 4 5 6 7 8 9 10 11 12 13 14 15 16 17 18 19 20 21 22 23 24 25 26 27
000
ASUS44 KMOB 221913
RWRMOB
REGIONAL WEATHER ROUNDUP
NATIONAL WEATHER SERVICE MOBILE AL
200 PM CDT TUE AUG 22 2017

NOTE: "FAIR" INDICATES FEW OR NO CLOUDS BELOW 12,000 FEET WITH NO
      SIGNIFICANT WEATHER AND/OR OBSTRUCTIONS TO VISIBILITY.

  * THESE STATIONS ARE PART OF THE UNIVERSITY OF SOUTH ALABAMA
    MESONET AND ARE NOT UNDER NWS OR FAA QUALITY CONTROL.

ALZ061>064-222000-
COASTAL ALABAMA

CITY           SKY/WX    TMP DP  RH WIND       PRES   REMARKS
MOBILE REG APT LGT RAIN  82  78  88 S7        30.09F
BROOKLEY FIELD LGT RAIN  82  81  96 S3        30.09F HX  95
USA CAMPUS*      N/A     82  75  78 CALM      30.08F
DOG RIVER*     NOT AVBL


CITY           SKY/WX    TMP DP  RH WIND       PRES   REMARKS
GULF SHORES    CLOUDY    78  78 100 S5        30.08F

$$

ALZ051>060-222000-
INTERIOR SOUTHWEST AND SOUTH CENTRAL ALABAMA

CITY           SKY/WX    TMP DP  RH WIND       PRES   REMARKS
GREENVILLE     PTSUNNY   90  70  51 S5        30.08F HX  95
EVERGREEN      PTSUNNY   89  73  59 W3        30.08F HX  97
ATMORE*        NOT AVBL
ANDALUSIA/OPP  MOSUNNY   94  71  47 CALM      30.08F HX 101
ANDALUSIA*       N/A     90  70  51 W3        30.09F HX  95
FLORALA APT      N/A    N/A N/A N/A MISG      30.09F
FLORALA*         N/A     90  72  55 W6        30.78F HX  96

$$

FLZ001>006-222000-
WESTERN FLORIDA PANHANDLE

CITY           SKY/WX    TMP DP  RH WIND       PRES   REMARKS
PENSACOLA      CLOUDY    86  76  71 SE5       30.08F HX  96
NAS PENSACOLA  CLOUDY    84  75  74 E6        30.08F
MILTON         CLOUDY    84  74  71 SW6       30.09F
WHTNG S FIELD  CLOUDY    87  76  69 S5        30.09F HX  97


CITY           SKY/WX    TMP DP  RH WIND       PRES   REMARKS
JAY*             N/A     86  73  66 S6        30.07F
DUKE FIELD     PTSUNNY   81  74  80 S8        30.09S THUNDER
CRESTVIEW      CLOUDY    85  73  67 SW12      30.10R
VALPARAISO     PTSUNNY   87  75  68 W8        30.08S HX  96
DESTIN         CLOUDY    91  74  57 S8        30.08S HX 100

$$

MSZ076-079-222000-
INTERIOR SOUTHEAST MISSISSIPPI

CITY           SKY/WX    TMP DP  RH WIND       PRES   REMARKS
LEAKESVILLE*     N/A     88  73  62 CALM      30.08F HX  96
AGRICOLA*        N/A     82  77  83 NW2       30.08F

$$

MARINE OBSERVATIONS

STATION/POSITION TIME  TEMP    WIND        PRES    WAVE
                       AIR SEA DIR/SP/G            HT/PER
                 (UTC) (F)     (DEG/KT/KT) (MB)    (FT/S)
PASCAGOULA       1848   79     130/  4/  5 1018.5F
PETIT BOIS ISLND 1848   82      50/  5/  6 1019.6F
GRAND BAY        1730   77     280/  5     1021.0S
KATRINA CUT      1830   81     120/  5     1018.3F
CEDAR POINT      1830   82     170/  4     1019.0F
E DAUPHIN ISLAND 1800   81     180/  3/  4 1019.3F
MIDDLE BAY LIGHT 1830   82     150/  6     1019.3S
USCG MOBILE BAY  1848   81 86  210/  2/  5 1019.3F
STATE DOCKS      1848   84 85              1018.6F
MEAHER PARK      1830   84     190/  5     1019.3F
WEEKS BAY        1745   85                   N/A
FORT MORGAN      1848   81     150/ 11/ 14   N/A
12 S ORANGE BCH  1850   78 86  200/  2/  4 1018.5F   2/ 7
PENSACOLA BAY    1848   86 87              1019.0F
64 S DAUPHIN ISL 1900   86 89  150/  2/  4 1018.1
67 S FORT MORGAN 1830   85     160/  6     1018.0F

$$

SELECTED LOCATIONS ACROSS THE REGION

CITY           SKY/WX    TMP DP  RH WIND       PRES   REMARKS
NEW ORLEANS    TSTM      78  74  87 S8        30.07F
GULFPORT       CLOUDY    82  77  84 E10       30.06F
PASCAGOULA AP  LGT RAIN  78  75  90 SE5       30.08F
PASCAGOULA*      N/A    N/A N/A N/A SE3         N/A
HATTIESBURG    MOSUNNY   90  70  51 CALM      30.07F HX  95
LAUREL         PTSUNNY   91  74  57 VRB3      30.08F HX 100
MERIDIAN       CLOUDY    89  73  59 S5        30.09F HX  97
JACKSON        MOSUNNY   92  73  53 VRB6      30.08S HX 100
MONTGOMERY     MOSUNNY   94  70  45 CALM      30.07F HX 100
TROY           MOSUNNY   88  73  61 CALM      30.09F HX  95
ASHFORD*         N/A     90  70  51 W3        30.09F HX  95
DOTHAN         MOSUNNY   91  72  53 CALM      30.11F HX  98
PANAMA CITY    MOSUNNY   91  72  53 S8        30.06F HX  98

$$





USA.gov is the U.S. government's official web portal to all federal, state and local government web resources and services.